Theta_e
321 321 321 320 320 320 319 319 319 319 318 318 318 317 317 317 317 317 317 317 319 321 321 323 324 327 322 314 316 324 352 345 329 326 321 320 319 317 314 316 318 318 318 324 327 330 332
321 321 320 320 320 319 319 319 319 318 318 317 317 317 316 316 316 317 317 317 318 320 321 323 325 330 318 311 323 324 322 324 325 325 323 321 319 319 316 316 315 317 317 318 323 326 327
321 320 320 320 319 319 318 318 319 318 317 317 316 316 316 316 316 316 316 316 318 319 321 323 326 328 313 316 322 322 322 322 325 325 321 322 321 319 318 316 317 317 314 317 319 322 323
319 319 319 319 319 318 318 317 318 317 317 317 316 316 315 316 316 316 315 315 318 320 322 324 328 321 310 319 320 321 323 323 323 325 324 324 322 319 317 317 315 312 314 310 317 319 322
318 318 318 318 318 318 317 317 317 317 317 318 317 315 315 315 315 315 314 316 319 321 323 326 320 312 310 324 319 321 323 321 320 320 321 322 320 315 315 312 310 310 306 307 311 317 318
318 318 317 318 317 317 317 316 316 316 317 317 316 315 314 314 314 313 314 316 318 321 323 325 322 313 314 313 317 319 322 320 318 318 318 317 315 314 312 311 303 305 305 306 307 312 315
318 317 317 317 317 317 316 316 316 316 316 317 316 315 313 313 313 313 313 316 309 307 313 305 306 308 313 317 316 317 319 318 317 317 312 311 311 309 308 309 309 308 306 305 309 312 310
317 316 316 316 316 317 316 316 316 317 316 316 315 314 313 313 312 313 312 313 311 312 308 311 308 308 311 313 310 314 319 315 313 309 310 311 308 310 310 309 307 306 305 307 309 310 311
318 317 317 316 316 316 316 316 315 316 316 315 315 314 312 312 313 311 308 310 313 314 308 310 312 312 314 313 310 313 317 314 311 309 308 307 309 310 309 307 306 306 306 306 305 308 309
319 318 317 316 316 316 316 315 315 315 315 315 315 313 311 312 308 309 309 312 316 315 306 306 311 313 311 312 309 314 316 315 311 308 308 308 310 308 308 307 307 305 307 306 305 306 303
319 318 317 316 316 316 316 315 315 315 314 315 314 312 311 311 308 313 315 315 312 313 294 309 310 314 310 309 309 310 315 315 310 309 309 307 307 307 306 308 308 307 309 307 307 306 305
319 319 318 318 317 316 315 315 315 315 314 314 313 311 311 310 311 316 315 314 315 305 297 307 309 308 307 307 308 310 312 315 313 309 308 309 310 309 309 309 309 309 308 307 307 306 303
319 318 318 318 316 316 316 315 315 314 314 313 311 308 310 312 311 316 314 316 305 300 308 305 305 307 307 305 306 308 307 307 306 302 303 305 306 309 309 307 309 308 307 303 301 302 300
319 318 318 318 317 316 316 315 315 314 314 312 308 308 310 313 314 314 317 313 300 305 307 310 306 305 304 305 305 305 305 304 305 305 304 302 302 308 310 309 308 307 308 304 295 298 301
319 318 318 317 317 316 316 315 314 314 313 311 308 310 312 315 315 314 316 304 303 306 311 309 306 304 304 306 305 305 305 305 307 307 303 302 304 311 311 311 310 306 307 306 302 300 301
319 318 318 317 317 316 315 315 315 313 312 310 312 316 319 316 316 316 314 301 307 310 313 310 305 306 303 305 305 305 304 307 306 308 311 307 303 309 311 311 310 310 308 304 306 298 296
319 318 317 317 316 315 315 316 314 313 311 309 316 318 319 316 316 319 307 308 310 314 314 309 308 306 306 306 305 304 303 310 312 308 308 308 307 307 309 307 306 308 306 304 305 304 299
318 318 317 317 317 317 317 315 314 312 309 309 318 312 320 317 313 308 310 310 306 311 313 311 311 310 309 308 306 307 305 310 312 310 306 310 308 305 305 309 307 307 306 306 304 300 302
318 318 318 317 317 317 317 315 314 311 310 309 316 316 320 317 306 309 309 308 310 310 311 310 309 311 311 308 308 308 309 312 312 312 310 310 307 303 303 306 308 306 306 304 304 304 302
319 318 318 317 317 317 317 315 314 312 311 311 317 313 316 315 309 308 308 308 307 311 310 312 310 310 310 309 310 308 308 311 311 312 317 315 306 307 303 305 307 304 305 304 305 302 302
319 318 318 317 317 317 317 315 314 312 310 311 312 310 311 310 311 310 310 308 308 307 311 313 312 310 310 308 308 307 308 310 311 314 310 311 307 306 305 305 305 305 305 305 304 305 302
318 318 318 317 317 317 317 315 315 313 310 313 312 311 311 310 310 310 304 309 308 308 309 310 310 309 310 310 310 308 309 310 309 312 309 308 307 305 304 305 304 303 305 305 304 304 303
318 318 318 317 317 317 317 316 316 313 312 313 312 312 312 304 306 308 308 308 308 310 311 312 310 310 309 309 311 310 310 308 308 308 308 308 306 304 301 301 302 300 304 304 306 309 309
318 318 317 317 316 317 317 317 317 314 312 311 312 311 311 306 308 307 307 307 307 308 309 310 311 311 310 311 310 309 309 308 307 306 306 304 305 303 301 301 292 303 310 309 308 309 310
318 317 317 317 316 316 317 318 317 316 313 314 313 312 311 306 308 308 308 307 308 310 309 309 310 310 310 309 306 302 304 305 306 304 302 304 305 300 298 297 299 304 307 307 306 306 310
317 317 317 316 316 316 317 317 318 316 314 314 314 314 313 309 307 308 308 308 308 308 309 309 312 313 311 308 305 299 297 300 300 303 305 304 305 302 298 295 293 302 308 311 310 302 310
317 317 316 316 316 315 316 317 317 317 315 313 314 314 313 309 311 309 310 310 309 308 309 308 309 312 310 307 303 301 300 303 300 300 301 303 303 300 299 298 302 307 310 311 300 303 311
317 317 316 316 316 315 315 316 317 317 316 313 314 314 313 310 312 313 312 311 309 309 309 307 309 310 309 306 304 304 303 303 302 302 301 301 301 301 300 298 295 311 309 304 309 313 312
316 316 315 315 315 315 315 316 316 316 316 314 313 313 314 312 312 313 316 317 313 311 310 309 309 309 311 307 306 305 303 302 300 299 304 301 304 303 303 303 309 313 311 314 313 314 314
Wind_Speed
16 16 16 16 16 16 16 16 15 14 14 13 12 11 10 11 11 11 11 12 13 13 14 14 15 15 5 1 5 1 3 2 2 1 2 2 7 3 4 4 3 3 6 2 1 5 3
16 16 16 16 16 17 17 17 16 16 15 14 12 11 10 10 10 11 11 12 13 13 13 14 14 14 3 3 2 3 5 3 2 1 2 2 4 2 2 3 3 5 7 11 3 6 5
16 17 17 17 17 17 17 18 17 16 16 14 13 11 10 10 10 11 11 12 13 13 13 12 11 5 2 8 1 6 4 2 1 1 1 1 1 3 2 2 4 5 5 6 4 2 4
17 17 18 17 17 18 18 18 18 17 15 15 13 11 10 10 10 10 11 12 13 13 11 9 6 2 7 3 6 9 2 1 2 2 1 1 1 2 3 3 2 4 2 4 4 1 1
18 18 18 18 18 18 18 18 18 17 16 13 12 12 10 9 9 10 11 13 13 10 6 5 2 2 6 8 3 3 2 2 2 3 1 4 3 4 1 3 2 6 2 4 7 3 1
18 18 18 19 18 18 18 19 19 19 16 15 13 11 9 8 8 9 12 11 6 6 2 3 2 3 4 1 3 3 1 1 0 3 3 5 4 2 2 5 5 7 4 4 5 3 1
19 19 19 19 19 19 19 19 19 19 18 15 13 11 9 6 6 7 7 3 3 3 2 4 1 2 3 6 2 3 2 5 1 7 2 3 2 2 4 1 3 5 4 6 4 4 3
19 20 20 19 19 19 19 20 19 19 19 17 15 12 9 5 4 5 2 3 1 3 3 7 5 7 6 3 1 2 3 3 2 4 1 2 2 2 3 1 2 2 3 5 9 2 2
18 20 20 19 19 19 20 20 20 20 18 17 14 11 8 3 3 2 2 3 2 1 2 1 4 4 2 7 4 7 5 3 4 4 2 2 1 4 1 2 5 3 3 4 5 6 2
18 19 20 20 20 20 20 21 21 21 19 17 14 12 6 3 2 2 4 2 4 4 1 4 3 2 5 3 3 1 2 2 2 3 5 5 1 3 4 5 1 3 4 7 7 5 5
17 18 20 20 20 20 20 20 21 22 21 17 15 11 6 4 1 4 3 5 6 4 4 5 4 2 0 2 3 3 1 2 5 5 5 3 2 1 5 4 4 2 2 1 2 3 3
17 18 18 19 20 21 21 21 22 21 20 18 15 11 2 2 2 4 5 3 3 4 4 5 3 5 5 1 2 3 2 5 2 3 1 7 1 4 4 1 4 2 3 2 2 1 1
17 18 19 20 22 21 21 22 23 23 19 18 17 7 8 2 1 3 3 2 2 1 1 6 5 6 5 5 4 3 8 8 5 3 4 2 5 3 3 3 3 4 2 1 2 1 3
17 18 19 19 21 22 20 23 24 24 20 19 13 6 6 4 3 5 3 2 1 1 1 2 4 8 6 6 3 3 6 7 3 3 1 3 6 2 4 5 3 2 2 1 3 4 4
17 17 19 19 21 23 22 24 24 25 21 19 4 2 2 2 9 3 2 2 1 2 2 1 4 5 4 4 2 3 6 6 8 12 6 4 2 2 7 1 3 5 2 3 5 1 4
16 17 18 20 21 23 23 25 24 26 24 17 2 2 2 3 8 3 1 2 3 4 3 2 4 2 8 7 8 7 7 3 4 11 11 2 2 1 1 2 12 2 8 3 0 3 7
15 17 18 19 21 23 24 25 25 26 25 9 2 2 4 4 3 1 2 4 5 5 6 4 3 4 4 5 3 4 4 2 1 2 9 5 4 3 2 4 0 4 4 5 2 3 5
15 16 17 19 19 21 23 25 24 24 24 1 0 3 3 3 2 1 3 3 2 4 1 3 1 3 3 3 3 2 4 2 5 5 7 6 3 3 1 4 1 2 2 3 3 2 1
15 16 17 18 20 21 23 25 27 23 18 3 2 2 2 3 3 2 2 3 4 3 3 4 2 3 3 4 4 1 2 2 6 3 6 9 3 4 4 3 3 4 3 2 4 1 5
14 16 17 18 19 21 22 25 27 24 18 3 1 4 1 2 1 2 1 2 3 1 0 1 2 2 3 3 5 4 2 3 4 3 5 2 3 3 6 2 2 4 6 5 5 4 3
14 15 16 17 19 21 22 25 25 26 14 2 3 2 2 5 5 4 1 2 3 1 1 3 3 4 2 3 2 3 1 0 2 4 2 3 2 2 1 1 3 3 6 8 8 5 8
12 14 15 16 18 20 21 24 25 28 15 2 1 0 1 2 1 5 3 3 3 2 3 2 4 3 2 3 1 4 2 0 2 3 3 4 1 0 2 2 4 6 7 8 8 5 8
11 13 14 16 17 18 20 22 22 26 15 3 2 0 3 1 2 4 3 1 1 2 6 5 7 7 9 4 3 5 5 5 4 4 3 2 5 4 7 3 2 9 10 9 4 2 4
10 11 14 15 16 17 18 19 19 20 14 2 2 2 2 2 1 1 1 1 2 1 4 3 4 3 2 0 3 3 5 5 4 7 4 3 3 0 4 2 9 5 5 6 3 1 3
9 10 13 14 15 16 17 18 18 17 19 2 1 2 2 3 0 2 2 2 3 4 4 4 4 4 1 3 1 1 1 1 4 7 2 3 4 3 4 6 4 3 2 0 2 3 2
9 8 11 13 14 15 16 18 17 17 18 1 2 2 2 1 2 1 2 2 2 2 3 2 3 2 2 3 2 3 3 1 3 3 3 6 4 4 3 4 5 4 3 5 3 6 3
8 7 9 11 13 13 15 16 17 17 16 3 2 3 2 0 1 1 2 2 2 2 2 0 3 1 2 2 2 3 3 1 3 2 1 2 2 5 4 5 1 2 4 1 5 4 3
6 6 7 10 12 13 13 15 16 17 16 7 1 4 2 1 1 1 1 2 2 1 2 3 3 2 2 3 2 3 2 2 2 0 0 1 2 2 2 3 5 3 2 3 6 1 3
5 4 6 8 11 12 13 13 15 15 15 10 1 2 2 2 3 3 4 4 3 1 3 1 3 2 2 3 2 2 3 3 1 3 1 3 2 2 4 3 2 1 3 4 4 7 9
Wind_Direction
7 6 5 6 4 1 355 352 346 342 338 330 323 315 309 305 304 305 307 309 313 317 317 318 322 324 319 270 250 71 227 250 142 95 37 21 33 13 32 350 358 312 339 284 235 168 191
5 3 2 0 360 0 356 352 348 345 343 335 326 318 309 303 301 301 303 305 307 312 314 317 323 317 298 259 148 147 340 233 354 29 336 19 22 339 87 350 351 327 308 295 262 187 213
4 1 0 359 358 356 355 353 349 346 345 340 331 320 310 303 299 299 301 303 305 309 310 313 318 317 283 247 84 311 301 303 323 244 16 77 107 351 349 346 338 313 318 324 273 214 219
1 360 359 358 357 354 352 351 349 347 344 342 337 324 311 302 298 299 300 299 302 302 301 305 307 280 257 271 320 298 271 227 140 200 247 4 219 88 10 329 14 25 48 339 2 33 359
360 358 357 356 355 353 351 350 347 347 346 340 338 331 315 301 297 297 299 298 297 295 284 278 250 291 264 317 274 339 238 285 15 77 35 87 62 43 45 3 57 23 345 4 328 3 64
358 357 356 354 353 351 349 349 347 347 345 345 342 338 321 306 297 301 297 284 285 297 188 194 253 254 246 96 316 325 132 289 113 163 98 43 35 33 59 24 7 317 344 322 292 322 236
357 356 355 353 351 350 348 348 346 346 346 345 344 341 333 307 301 305 322 165 178 158 216 215 197 283 291 309 259 191 172 148 161 62 89 45 263 58 332 63 304 291 288 304 263 278 279
359 356 354 352 350 348 347 346 345 344 345 345 345 344 336 319 289 308 277 216 175 25 269 224 255 280 258 264 274 181 196 163 108 120 158 223 226 160 279 6 265 239 285 284 289 293 231
349 352 353 351 350 348 346 345 344 342 343 345 343 342 335 305 300 250 234 223 92 258 262 230 199 235 224 180 188 172 170 140 106 129 118 226 339 256 208 330 301 193 237 258 282 315 218
348 350 353 351 349 348 345 344 342 343 343 344 343 340 332 295 247 158 227 134 293 223 194 159 211 201 161 212 142 172 96 124 95 185 175 248 262 236 303 307 211 302 216 264 285 279 322
348 347 353 352 350 348 345 344 342 342 342 343 341 338 329 266 3 205 85 333 134 198 134 146 148 79 84 216 114 115 278 107 166 156 203 148 194 279 297 273 201 287 334 343 314 283 273
347 345 342 342 347 348 345 343 342 339 340 340 336 317 261 195 232 264 327 170 223 233 112 156 126 158 152 67 68 83 98 74 85 178 238 269 202 259 242 1 214 112 203 82 109 312 197
345 344 344 342 348 347 345 344 342 340 338 339 334 294 184 216 138 347 319 194 234 252 302 154 161 169 164 160 176 147 170 183 200 183 234 294 243 230 212 223 175 199 243 329 177 32 16
342 343 343 341 344 347 345 344 343 340 338 340 347 137 220 242 310 332 182 219 223 84 219 96 123 132 181 157 161 124 145 188 173 159 168 264 153 229 161 241 157 106 331 48 352 335 348
340 341 343 341 344 347 346 344 343 340 337 339 347 204 234 260 210 295 195 226 290 191 328 27 128 135 149 166 166 171 198 205 201 193 220 202 139 58 62 111 284 143 136 24 119 117 256
340 341 342 342 344 347 346 343 343 342 338 335 222 190 39 42 160 206 106 264 259 233 291 212 192 198 172 159 179 200 183 155 214 201 220 185 230 61 43 202 59 344 130 185 99 270 291
340 341 341 342 346 349 345 346 346 345 340 335 220 121 26 116 211 116 203 250 272 255 237 219 188 135 120 144 200 182 165 119 306 120 198 170 238 150 239 21 78 156 151 73 107 324 298
339 341 341 342 341 341 344 348 348 348 343 344 307 109 55 233 130 2 200 215 301 279 218 263 236 85 107 113 121 149 175 286 352 177 178 176 176 213 75 18 354 324 92 225 267 199 118
338 340 341 341 341 343 345 350 352 352 356 318 77 87 125 283 178 197 261 267 257 286 355 355 74 29 54 103 114 110 138 71 15 170 173 178 187 147 147 161 211 235 132 104 103 142 199
338 339 341 341 342 344 348 352 352 353 350 264 165 124 97 60 18 149 14 298 284 7 101 39 82 129 122 86 39 128 129 43 27 83 51 129 132 235 272 10 95 180 176 186 247 235 253
336 338 340 342 343 345 350 355 351 354 349 271 6 95 0 174 199 191 201 310 295 211 51 30 98 56 96 114 102 95 85 357 94 14 47 331 153 218 190 182 206 243 211 195 222 261 252
335 337 339 342 344 346 351 358 354 355 350 73 21 187 128 87 108 161 161 206 230 145 333 43 109 90 78 117 35 161 156 48 17 25 50 1 129 193 263 211 241 254 251 242 242 234 253
333 336 339 343 344 346 351 360 358 2 351 49 21 262 285 36 127 178 167 313 215 164 51 56 111 97 88 70 60 48 60 72 56 18 20 327 158 182 250 1 292 258 256 249 234 219 279
326 335 341 343 345 346 350 356 359 9 17 350 30 291 286 109 183 127 170 128 63 8 128 70 66 104 77 287 136 121 63 68 98 39 255 156 120 237 275 201 249 54 352 241 239 141 195
324 333 339 341 344 346 350 356 359 3 11 10 15 313 345 107 16 121 88 90 101 70 73 81 48 24 343 61 92 2 85 124 78 37 63 258 159 156 241 227 338 204 157 156 251 165 172
312 325 334 339 341 346 350 356 358 2 6 316 32 308 316 199 84 325 65 22 113 94 113 84 61 21 87 68 95 206 234 55 170 144 75 93 80 224 161 240 251 73 109 4 167 253 164
299 319 328 335 339 344 348 351 355 0 2 342 26 4 285 20 69 238 87 83 108 100 102 336 358 99 348 112 142 190 179 303 209 187 147 102 70 224 205 250 264 51 354 217 234 41 150
299 310 324 334 337 339 344 347 351 356 360 358 7 9 320 318 348 293 15 126 133 47 172 98 186 151 99 124 193 151 208 111 192 85 254 275 236 181 167 247 251 33 135 304 358 272 258
305 318 331 335 339 337 340 343 346 349 355 357 332 32 325 257 4 312 304 310 337 344 130 109 31 110 116 112 174 143 161 178 180 189 146 216 313 352 254 7 24 329 48 348 281 280 280